| time (UTC) | temp F | wind direction | speed MPH | gust MPH | rain 1hr in | rain 24hr in | rain mn in | humidity % | barometer mb |
| 20260510182256 | 64 | 291 | 2.0 | 3.0 | 0.00 | 0.00 | 0.00 | 69 | 1010.6 |
| 20260510181757 | 64 | 214 | 2.0 | 4.0 | 0.00 | 0.00 | 0.00 | 70 | 1010.6 |
| 20260510181256 | 64 | 303 | 3.0 | 6.0 | 0.00 | 0.00 | 0.00 | 69 | 1010.7 |
| 20260510180756 | 64 | 12 | 2.0 | 7.0 | 0.00 | 0.00 | 0.00 | 69 | 1010.6 |
| 20260510180257 | 63 | 273 | 1.0 | 3.0 | 0.00 | 0.00 | 0.00 | 71 | 1010.7 |
| 20260510175758 | 64 | 303 | 8.0 | 10.0 | 0.00 | 0.00 | 0.00 | 69 | 1010.9 |
| 20260510175257 | 65 | 305 | 2.0 | 3.0 | 0.00 | 0.00 | 0.00 | 67 | 1010.7 |
| 20260510174756 | 65 | 276 | 8.0 | 11.0 | 0.00 | 0.00 | 0.00 | 61 | 1010.4 |
| 20260510174256 | 65 | 319 | 4.0 | 5.0 | 0.00 | 0.00 | 0.00 | 63 | 1010.6 |
| 20260510173756 | 65 | 288 | 7.0 | 9.0 | 0.00 | 0.00 | 0.00 | 63 | 1010.6 |
| 20260510173257 | 65 | 258 | 7.0 | 11.0 | 0.00 | 0.00 | 0.00 | 62 | 1010.7 |
| 20260510172757 | 65 | 268 | 6.0 | 9.0 | 0.00 | 0.00 | 0.00 | 60 | 1010.4 |
| 20260510172256 | 65 | 257 | 9.0 | 12.0 | 0.00 | 0.00 | 0.00 | 60 | 1010.3 |
| 20260510171756 | 65 | 250 | 9.0 | 11.0 | 0.00 | 0.00 | 0.00 | 60 | 1010.2 |
| 20260510171256 | 65 | 302 | 2.0 | 6.0 | 0.00 | 0.00 | 0.00 | 62 | 1010.6 |
| 20260510170756 | 65 | 281 | 4.0 | 7.0 | 0.00 | 0.00 | 0.00 | 59 | 1010.6 |
| 20260510170256 | 65 | 263 | 2.0 | 8.0 | 0.00 | 0.00 | 0.00 | 61 | 1010.7 |
| 20260510165756 | 65 | 294 | 6.0 | 9.0 | 0.00 | 0.00 | 0.00 | 61 | 1010.5 |
| 20260510165256 | 65 | 288 | 2.0 | 3.0 | 0.00 | 0.00 | 0.00 | 61 | 1010.2 |
| 20260510164756 | 64 | 284 | 4.0 | 6.0 | 0.00 | 0.00 | 0.00 | 62 | 1010.3 |
| 20260510164256 | 64 | 269 | 4.0 | 8.0 | 0.00 | 0.00 | 0.00 | 63 | 1010.8 |
| 20260510163756 | 64 | 274 | 4.0 | 9.0 | 0.00 | 0.00 | 0.00 | 61 | 1010.7 |
| 20260510163256 | 64 | 286 | 5.0 | 8.0 | 0.00 | 0.00 | 0.00 | 62 | 1010.7 |
| 20260510162756 | 64 | 318 | 3.0 | 4.0 | 0.00 | 0.00 | 0.00 | 61 | 1010.4 |
| 20260510162256 | 64 | 296 | 4.0 | 6.0 | 0.00 | 0.00 | 0.00 | 64 | 1010.4 |
| 20260510161758 | 64 | 281 | 4.0 | 6.0 | 0.00 | 0.00 | 0.00 | 64 | 1010.8 |
| 20260510161256 | 64 | 259 | 5.0 | 6.0 | 0.00 | 0.00 | 0.00 | 63 | 1010.8 |
| 20260510160757 | 64 | 326 | 3.0 | 6.0 | 0.00 | 0.00 | 0.00 | 63 | 1010.6 |
| 20260510160258 | 63 | 275 | 3.0 | 6.0 | 0.00 | 0.00 | 0.00 | 67 | 1010.8 |
| 20260510155756 | 63 | 278 | 1.0 | 3.0 | 0.00 | 0.00 | 0.00 | 66 | 1010.8 |
| 20260510155256 | 63 | 265 | 3.0 | 5.0 | 0.00 | 0.00 | 0.00 | 67 | 1010.8 |
| 20260510154756 | 62 | 271 | 3.0 | 6.0 | 0.00 | 0.00 | 0.00 | 68 | 1010.8 |
| 20260510154256 | 62 | 310 | 3.0 | 6.0 | 0.00 | 0.00 | 0.00 | 67 | 1011.0 |
| 20260510153756 | 62 | 286 | 3.0 | 4.0 | 0.00 | 0.00 | 0.00 | 70 | 1010.9 |
| 20260510153256 | 62 | 274 | 3.0 | 5.0 | 0.00 | 0.00 | 0.00 | 68 | 1010.6 |
| 20260510152756 | 62 | 271 | 5.0 | 8.0 | 0.00 | 0.00 | 0.00 | 68 | 1010.6 |
| 20260510152257 | 62 | 274 | 4.0 | 9.0 | 0.00 | 0.00 | 0.00 | 69 | 1010.4 |
| 20260510151756 | 61 | 280 | 2.0 | 4.0 | 0.00 | 0.00 | 0.00 | 70 | 1010.4 |
| 20260510151256 | 60 | 39 | 2.0 | 3.0 | 0.00 | 0.00 | 0.00 | 73 | 1010.5 |
| 20260510150756 | 60 | 283 | 1.0 | 2.0 | 0.00 | 0.00 | 0.00 | 74 | 1010.6 |
| 20260510150257 | 59 | 284 | 2.0 | 3.0 | 0.00 | 0.00 | 0.00 | 75 | 1010.8 |
| 20260510145758 | 59 | 271 | 3.0 | 5.0 | 0.00 | 0.00 | 0.00 | 77 | 1010.6 |
| 20260510145256 | 59 | 292 | 3.0 | 4.0 | 0.00 | 0.00 | 0.00 | 76 | 1010.6 |
| 20260510144756 | 59 | 266 | 4.0 | 5.0 | 0.00 | 0.00 | 0.00 | 77 | 1011.1 |
| 20260510144257 | 59 | 124 | 1.0 | 2.0 | 0.00 | 0.00 | 0.00 | 77 | 1010.9 |
| 20260510143756 | 58 | 282 | 1.0 | 2.0 | 0.00 | 0.00 | 0.00 | 79 | 1010.8 |
| 20260510143256 | 58 | 261 | 4.0 | 6.0 | 0.00 | 0.00 | 0.00 | 79 | 1010.8 |
| 20260510142757 | 58 | 277 | 2.0 | 4.0 | 0.00 | 0.00 | 0.00 | 82 | 1010.8 |
| 20260510142257 | 57 | 289 | 2.0 | 2.0 | 0.00 | 0.00 | 0.00 | 82 | 1010.8 |
| 20260510141756 | 57 | 301 | 2.0 | 2.0 | 0.00 | 0.00 | 0.00 | 82 | 1010.9 |
| 20260510141256 | 57 | 294 | 2.0 | 3.0 | 0.00 | 0.00 | 0.00 | 82 | 1010.8 |
| 20260510140756 | 57 | 269 | 2.0 | 3.0 | 0.00 | 0.00 | 0.00 | 83 | 1010.9 |
| 20260510140300 | 56 | 263 | 3.0 | 4.0 | 0.00 | 0.00 | 0.00 | 83 | 1011.0 |
| 20260510135757 | 56 | 303 | 3.0 | 6.0 | 0.00 | 0.00 | 0.00 | 83 | 1011.1 |
| 20260510135257 | 56 | 261 | 2.0 | 4.0 | 0.00 | 0.00 | 0.00 | 84 | 1011.1 |
| 20260510134756 | 56 | 262 | 1.0 | 1.0 | 0.00 | 0.00 | 0.00 | 85 | 1011.0 |
| 20260510134257 | 55 | 217 | 0.0 | 1.0 | 0.00 | 0.00 | 0.00 | 87 | 1011.0 |
| 20260510133758 | 55 | 77 | 1.0 | 3.0 | 0.00 | 0.00 | 0.00 | 85 | 1011.0 |
| 20260510133256 | 56 | 278 | 3.0 | 5.0 | 0.00 | 0.00 | 0.00 | 84 | 1010.9 |
| 20260510132756 | 55 | 289 | 3.0 | 5.0 | 0.00 | 0.00 | 0.00 | 84 | 1010.5 |
| 20260510132257 | 54 | 356 | 1.0 | 2.0 | 0.00 | 0.00 | 0.00 | 89 | 1010.5 |
| 20260510131757 | 53 | 320 | 1.0 | 1.0 | 0.00 | 0.00 | 0.00 | 90 | 1010.5 |
| 20260510131257 | 52 | 322 | 1.0 | 2.0 | 0.00 | 0.00 | 0.00 | 93 | 1010.6 |
| 20260510130756 | 51 | 309 | 0.0 | 1.0 | 0.00 | 0.00 | 0.00 | 95 | 1010.8 |
| 20260510130256 | 50 | 0 | 0.0 | 0.0 | 0.00 | 0.00 | 0.00 | 95 | 1011.0 |
| 20260510125756 | 50 | 250 | 2.0 | 2.0 | 0.00 | 0.00 | 0.00 | 94 | 1011.1 |
| 20260510125256 | 49 | 236 | 0.0 | 1.0 | 0.00 | 0.00 | 0.00 | 95 | 1011.1 |
| 20260510124756 | 49 | 276 | 1.0 | 1.0 | 0.00 | 0.00 | 0.00 | 96 | 1011.2 |
| 20260510124257 | 49 | 246 | 1.0 | 1.0 | 0.00 | 0.00 | 0.00 | 96 | 1011.2 |
| 20260510123756 | 49 | 248 | 1.0 | 1.0 | 0.00 | 0.00 | 0.00 | 97 | 1011.2 |
| 20260510123256 | 48 | 304 | 0.0 | 1.0 | 0.00 | 0.00 | 0.00 | 97 | 1011.2 |
| 20260510122756 | 48 | 295 | 1.0 | 1.0 | 0.00 | 0.00 | 0.00 | 98 | 1011.3 |
| 20260510122257 | 48 | 0 | 0.0 | 0.0 | 0.00 | 0.00 | 0.00 | 98 | 1011.3 |
| 20260510121756 | 47 | 296 | 0.0 | 1.0 | 0.00 | 0.00 | 0.00 | 98 | 1011.4 |
| 20260510121257 | 47 | 265 | 2.0 | 2.0 | 0.00 | 0.00 | 0.00 | 98 | 1011.4 |
| 20260510120757 | 47 | 293 | 1.0 | 2.0 | 0.00 | 0.00 | 0.00 | 99 | 1011.2 |
| 20260510120258 | 47 | 307 | 1.0 | 2.0 | 0.00 | 0.00 | 0.00 | 99 | 1011.3 |
| 20260510115756 | 47 | 0 | 0.0 | 0.0 | 0.00 | 0.00 | 0.00 | 99 | 1011.3 |
| 20260510115256 | 47 | 234 | 1.0 | 1.0 | 0.00 | 0.00 | 0.00 | 99 | 1011.3 |
| 20260510114756 | 46 | 62 | 1.0 | 1.0 | 0.00 | 0.00 | 0.00 | 99 | 1011.3 |
| 20260510114256 | 46 | 0 | 0.0 | 0.0 | 0.00 | 0.00 | 0.00 | 99 | 1011.4 |
| 20260510113756 | 46 | 0 | 0.0 | 0.0 | 0.00 | 0.00 | 0.00 | 99 | 1011.5 |
| 20260510113256 | 46 | 45 | 0.0 | 1.0 | 0.00 | 0.00 | 0.00 | 99 | 1011.6 |
| 20260510112757 | 46 | 273 | 0.0 | 1.0 | 0.00 | 0.00 | 0.00 | 99 | 1011.7 |
| 20260510112256 | 46 | 271 | 1.0 | 1.0 | 0.00 | 0.00 | 0.00 | 99 | 1011.5 |
| 20260510111756 | 46 | 0 | 0.0 | 0.0 | 0.00 | 0.00 | 0.00 | 99 | 1011.4 |
| 20260510111257 | 46 | 0 | 0.0 | 0.0 | 0.00 | 0.00 | 0.00 | 99 | 1011.5 |
| 20260510110756 | 45 | 0 | 0.0 | 0.0 | 0.00 | 0.00 | 0.00 | 99 | 1011.3 |
| 20260510110256 | 45 | 0 | 0.0 | 0.0 | 0.00 | 0.00 | 0.00 | 99 | 1011.1 |
| 20260510105756 | 45 | 253 | 0.0 | 0.0 | 0.00 | 0.00 | 0.00 | 99 | 1011.0 |
| 20260510105256 | 45 | 0 | 0.0 | 0.0 | 0.00 | 0.00 | 0.00 | 99 | 1010.9 |
| 20260510104757 | 45 | 0 | 0.0 | 0.0 | 0.00 | 0.00 | 0.00 | 99 | 1010.9 |
| 20260510104256 | 45 | 0 | 0.0 | 0.0 | 0.00 | 0.00 | 0.00 | 99 | 1010.9 |
| 20260510103757 | 45 | 326 | 0.0 | 0.0 | 0.00 | 0.00 | 0.00 | 99 | 1010.9 |
| 20260510103256 | 45 | 337 | 0.0 | 0.0 | 0.00 | 0.00 | 0.00 | 99 | 1010.8 |
| 20260510102758 | 45 | 322 | 0.0 | 1.0 | 0.00 | 0.00 | 0.00 | 99 | 1010.6 |
| 20260510102256 | 45 | 38 | 0.0 | 0.0 | 0.00 | 0.00 | 0.00 | 99 | 1010.5 |
| 20260510101757 | 45 | 0 | 0.0 | 0.0 | 0.00 | 0.00 | 0.00 | 99 | 1010.5 |
| 20260510101256 | 45 | 0 | 0.0 | 0.0 | 0.00 | 0.00 | 0.00 | 99 | 1010.3 |
| 20260510100756 | 45 | 0 | 0.0 | 0.0 | 0.00 | 0.00 | 0.00 | 99 | 1010.3 |
| 20260510100256 | 45 | 0 | 0.0 | 0.0 | 0.00 | 0.00 | 0.00 | 99 | 1010.5 |
| 20260510095756 | 45 | 0 | 0.0 | 0.0 | 0.00 | 0.00 | 0.00 | 99 | 1010.5 |
| 20260510095258 | 45 | 357 | 0.0 | 1.0 | 0.00 | 0.00 | 0.00 | 99 | 1010.3 |
| 20260510094756 | 45 | 0 | 0.0 | 0.0 | 0.00 | 0.00 | 0.00 | 99 | 1010.2 |
| 20260510094256 | 45 | 284 | 2.0 | 2.0 | 0.00 | 0.00 | 0.00 | 99 | 1010.2 |
| 20260510093756 | 44 | 0 | 0.0 | 0.0 | 0.00 | 0.00 | 0.00 | 99 | 1010.0 |
| 20260510093257 | 44 | 0 | 0.0 | 0.0 | 0.00 | 0.00 | 0.00 | 99 | 1010.1 |
| 20260510092757 | 45 | 0 | 0.0 | 0.0 | 0.00 | 0.00 | 0.00 | 99 | 1010.3 |
| 20260510092256 | 45 | 0 | 0.0 | 0.0 | 0.00 | 0.00 | 0.00 | 99 | 1010.3 |
| 20260510091757 | 44 | 0 | 0.0 | 0.0 | 0.00 | 0.00 | 0.00 | 99 | 1010.1 |
| 20260510091259 | 44 | 0 | 0.0 | 0.0 | 0.00 | 0.00 | 0.00 | 99 | 1010.3 |
| 20260510090756 | 44 | 0 | 0.0 | 0.0 | 0.00 | 0.00 | 0.00 | 99 | 1010.1 |
| 20260510090256 | 45 | 0 | 0.0 | 0.0 | 0.00 | 0.00 | 0.00 | 99 | 1010.3 |
| 20260510085756 | 45 | 0 | 0.0 | 0.0 | 0.00 | 0.00 | 0.00 | 99 | 1010.5 |
| 20260510085256 | 44 | 0 | 0.0 | 0.0 | 0.00 | 0.00 | 0.00 | 99 | 1010.4 |
| 20260510084757 | 44 | 62 | 1.0 | 1.0 | 0.00 | 0.00 | 0.00 | 99 | 1010.3 |
| 20260510084256 | 44 | 0 | 0.0 | 0.0 | 0.00 | 0.00 | 0.00 | 99 | 1010.6 |
| 20260510083756 | 44 | 0 | 0.0 | 0.0 | 0.00 | 0.00 | 0.00 | 99 | 1010.6 |
| 20260510083256 | 44 | 48 | 0.0 | 0.0 | 0.00 | 0.00 | 0.00 | 99 | 1010.5 |
| 20260510082756 | 44 | 0 | 0.0 | 0.0 | 0.00 | 0.00 | 0.00 | 99 | 1010.5 |
| 20260510082256 | 44 | 0 | 0.0 | 0.0 | 0.00 | 0.00 | 0.00 | 99 | 1010.4 |
| 20260510081756 | 44 | 0 | 0.0 | 0.0 | 0.00 | 0.00 | 0.00 | 99 | 1010.5 |
| 20260510081256 | 44 | 0 | 0.0 | 0.0 | 0.00 | 0.00 | 0.00 | 99 | 1010.7 |
| 20260510080757 | 44 | 0 | 0.0 | 0.0 | 0.00 | 0.00 | 0.00 | 99 | 1010.6 |
| 20260510080256 | 44 | 0 | 0.0 | 0.0 | 0.00 | 0.00 | 0.00 | 99 | 1010.5 |
| 20260510075757 | 44 | 0 | 0.0 | 0.0 | 0.00 | 0.00 | 0.00 | 99 | 1010.5 |
| 20260510075256 | 44 | 0 | 0.0 | 0.0 | 0.00 | 0.00 | 0.00 | 99 | 1010.5 |
| 20260510074756 | 44 | 0 | 0.0 | 0.0 | 0.00 | 0.00 | 0.00 | 99 | 1010.5 |
| 20260510074257 | 44 | 0 | 0.0 | 0.0 | 0.00 | 0.00 | 0.00 | 99 | 1010.5 |
| 20260510073757 | 44 | 0 | 0.0 | 0.0 | 0.00 | 0.00 | 0.00 | 99 | 1010.4 |
| 20260510073256 | 44 | 0 | 0.0 | 0.0 | 0.00 | 0.00 | 0.00 | 99 | 1010.4 |
| 20260510072756 | 44 | 0 | 0.0 | 0.0 | 0.00 | 0.00 | 0.00 | 99 | 1010.4 |
| 20260510072256 | 44 | 0 | 0.0 | 0.0 | 0.00 | 0.00 | 0.00 | 99 | 1010.5 |
| 20260510071756 | 44 | 301 | 0.0 | 0.0 | 0.00 | 0.00 | 0.00 | 99 | 1010.5 |
| 20260510071256 | 44 | 0 | 0.0 | 0.0 | 0.00 | 0.00 | 0.00 | 99 | 1010.4 |
| 20260510070756 | 44 | 0 | 0.0 | 0.0 | 0.00 | 0.00 | 0.00 | 99 | 1010.4 |
| 20260510070256 | 44 | 0 | 0.0 | 0.0 | 0.00 | 0.00 | 0.00 | 99 | 1010.7 |
| 20260510065756 | 44 | 0 | 0.0 | 0.0 | 0.00 | 0.00 | 0.00 | 99 | 1010.7 |
| 20260510065256 | 44 | 230 | 0.0 | 1.0 | 0.00 | 0.00 | 0.00 | 99 | 1010.8 |
| 20260510064756 | 44 | 0 | 0.0 | 0.0 | 0.00 | 0.00 | 0.00 | 99 | 1010.8 |
| 20260510064257 | 44 | 0 | 0.0 | 0.0 | 0.00 | 0.00 | 0.00 | 99 | 1010.9 |
| 20260510063756 | 44 | 0 | 0.0 | 0.0 | 0.00 | 0.00 | 0.00 | 99 | 1011.0 |
| 20260510063256 | 44 | 0 | 0.0 | 0.0 | 0.00 | 0.00 | 0.00 | 99 | 1010.9 |
| 20260510062757 | 44 | 354 | 0.0 | 0.0 | 0.00 | 0.00 | 0.00 | 99 | 1010.7 |
| 20260510062256 | 44 | 0 | 0.0 | 0.0 | 0.00 | 0.00 | 0.00 | 98 | 1010.7 |
| 20260510061757 | 44 | 0 | 0.0 | 0.0 | 0.00 | 0.00 | 0.00 | 98 | 1010.7 |
| 20260510061256 | 44 | 0 | 0.0 | 0.0 | 0.00 | 0.00 | 0.00 | 98 | 1010.7 |
| 20260510060756 | 44 | 0 | 0.0 | 0.0 | 0.00 | 0.00 | 0.00 | 98 | 1010.7 |
| 20260510060256 | 44 | 0 | 0.0 | 0.0 | 0.00 | 0.00 | 0.00 | 98 | 1010.7 |
| 20260510055757 | 44 | 0 | 0.0 | 0.0 | 0.00 | 0.00 | 0.00 | 98 | 1010.8 |
| 20260510055257 | 44 | 0 | 0.0 | 0.0 | 0.00 | 0.00 | 0.00 | 98 | 1010.9 |
| 20260510054756 | 44 | 0 | 0.0 | 0.0 | 0.00 | 0.00 | 0.00 | 98 | 1010.8 |
| 20260510054257 | 44 | 0 | 0.0 | 0.0 | 0.00 | 0.00 | 0.00 | 98 | 1010.7 |
| 20260510053756 | 44 | 0 | 0.0 | 0.0 | 0.00 | 0.00 | 0.00 | 98 | 1010.7 |
| 20260510053256 | 44 | 0 | 0.0 | 0.0 | 0.00 | 0.00 | 0.00 | 98 | 1010.7 |
| 20260510052756 | 44 | 344 | 0.0 | 0.0 | 0.00 | 0.00 | 0.00 | 98 | 1010.8 |
| 20260510052257 | 44 | 0 | 0.0 | 0.0 | 0.00 | 0.00 | 0.00 | 98 | 1010.7 |
| 20260510051757 | 44 | 0 | 0.0 | 0.0 | 0.00 | 0.00 | 0.00 | 98 | 1010.7 |
| 20260510051256 | 44 | 56 | 0.0 | 0.0 | 0.00 | 0.00 | 0.00 | 98 | 1010.9 |
| 20260510050756 | 44 | 0 | 0.0 | 0.0 | 0.00 | 0.00 | 0.00 | 98 | 1011.0 |
| 20260510050256 | 44 | 0 | 0.0 | 0.0 | 0.00 | 0.00 | 0.00 | 98 | 1011.0 |
| 20260510045756 | 44 | 0 | 0.0 | 0.0 | 0.00 | 0.00 | 0.00 | 98 | 1011.0 |
| 20260510045256 | 44 | 0 | 0.0 | 0.0 | 0.00 | 0.00 | 0.00 | 98 | 1011.0 |
| 20260510044756 | 44 | 0 | 0.0 | 0.0 | 0.00 | 0.00 | 0.00 | 98 | 1011.1 |
| 20260510044256 | 44 | 0 | 0.0 | 0.0 | 0.00 | 0.00 | 0.00 | 98 | 1011.1 |
| 20260510043756 | 44 | 0 | 0.0 | 0.0 | 0.00 | 0.00 | 0.00 | 98 | 1011.1 |
| 20260510043256 | 44 | 0 | 0.0 | 0.0 | 0.00 | 0.00 | 0.00 | 98 | 1011.1 |
| 20260510042756 | 44 | 0 | 0.0 | 0.0 | 0.00 | 0.00 | 0.00 | 98 | 1011.3 |
| 20260510042256 | 44 | 0 | 0.0 | 0.0 | 0.00 | 0.00 | 0.00 | 98 | 1011.3 |
| 20260510041756 | 44 | 0 | 0.0 | 0.0 | 0.00 | 0.00 | 0.00 | 98 | 1011.3 |
| 20260510041256 | 44 | 0 | 0.0 | 0.0 | 0.00 | 0.00 | 0.00 | 98 | 1011.3 |
| 20260510040757 | 44 | 0 | 0.0 | 0.0 | 0.00 | 0.00 | 0.00 | 98 | 1011.3 |
| 20260510040258 | 44 | 0 | 0.0 | 0.0 | 0.00 | 0.00 | 0.00 | 98 | 1011.3 |
| 20260510035756 | 44 | 0 | 0.0 | 0.0 | 0.00 | 0.00 | 0.38 | 98 | 1011.2 |
| 20260510035256 | 44 | 0 | 0.0 | 0.0 | 0.00 | 0.00 | 0.38 | 98 | 1011.3 |
| 20260510034756 | 44 | 0 | 0.0 | 0.0 | 0.00 | 0.00 | 0.38 | 98 | 1011.2 |
| 20260510034256 | 44 | 307 | 1.0 | 1.0 | 0.00 | 0.00 | 0.38 | 98 | 1011.3 |
| 20260510033756 | 44 | 333 | 0.0 | 1.0 | 0.00 | 0.00 | 0.38 | 98 | 1011.2 |
| 20260510033256 | 44 | 0 | 0.0 | 0.0 | 0.00 | 0.00 | 0.38 | 98 | 1011.2 |
| 20260510032757 | 44 | 332 | 0.0 | 0.0 | 0.00 | 0.00 | 0.38 | 98 | 1011.2 |
| 20260510032256 | 44 | 0 | 0.0 | 0.0 | 0.00 | 0.00 | 0.38 | 99 | 1011.2 |
| 20260510031757 | 44 | 0 | 0.0 | 0.0 | 0.00 | 0.00 | 0.38 | 99 | 1011.5 |
| 20260510031257 | 44 | 0 | 0.0 | 0.0 | 0.00 | 0.00 | 0.38 | 99 | 1011.6 |
| 20260510030756 | 44 | 0 | 0.0 | 0.0 | 0.00 | 0.00 | 0.38 | 99 | 1011.6 |
| 20260510030256 | 44 | 0 | 0.0 | 0.0 | 0.00 | 0.00 | 0.38 | 99 | 1011.6 |
| 20260510025756 | 44 | 0 | 0.0 | 0.0 | 0.00 | 0.00 | 0.38 | 99 | 1011.6 |
| 20260510025257 | 44 | 0 | 0.0 | 0.0 | 0.00 | 0.00 | 0.38 | 99 | 1011.8 |
| 20260510024757 | 44 | 0 | 0.0 | 0.0 | 0.00 | 0.00 | 0.38 | 99 | 1011.8 |
| 20260510024256 | 44 | 294 | 0.0 | 1.0 | 0.00 | 0.00 | 0.38 | 99 | 1011.9 |
| 20260510023756 | 44 | 332 | 0.0 | 0.0 | 0.00 | 0.00 | 0.38 | 99 | 1011.8 |
| 20260510023256 | 44 | 351 | 0.0 | 1.0 | 0.00 | 0.00 | 0.38 | 99 | 1011.8 |
| 20260510022756 | 44 | 311 | 1.0 | 1.0 | 0.00 | 0.00 | 0.38 | 99 | 1011.7 |
| 20260510022256 | 44 | 5 | 1.0 | 2.0 | 0.00 | 0.00 | 0.38 | 99 | 1011.7 |
| 20260510021756 | 44 | 0 | 0.0 | 0.0 | 0.00 | 0.00 | 0.38 | 99 | 1011.8 |
| 20260510021256 | 44 | 0 | 0.0 | 0.0 | 0.00 | 0.00 | 0.38 | 99 | 1011.8 |
| 20260510020756 | 44 | 0 | 0.0 | 0.0 | 0.00 | 0.00 | 0.38 | 99 | 1011.9 |
| 20260510020256 | 44 | 0 | 0.0 | 0.0 | 0.00 | 0.00 | 0.38 | 99 | 1012.0 |
| 20260510015757 | 44 | 348 | 0.0 | 1.0 | 0.00 | 0.00 | 0.38 | 98 | 1011.9 |
| 20260510015256 | 44 | 0 | 0.0 | 0.0 | 0.00 | 0.00 | 0.38 | 99 | 1011.8 |
| 20260510014756 | 44 | 0 | 0.0 | 0.0 | 0.00 | 0.00 | 0.38 | 99 | 1011.8 |
| 20260510014257 | 44 | 0 | 0.0 | 0.0 | 0.00 | 0.00 | 0.38 | 98 | 1011.9 |
| 20260510013756 | 44 | 0 | 0.0 | 0.0 | 0.00 | 0.00 | 0.38 | 98 | 1012.0 |
| 20260510013256 | 44 | 0 | 0.0 | 0.0 | 0.00 | 0.00 | 0.38 | 98 | 1012.0 |
| 20260510012756 | 44 | 45 | 1.0 | 1.0 | 0.00 | 0.00 | 0.38 | 98 | 1012.0 |
| 20260510012256 | 44 | 0 | 0.0 | 0.0 | 0.00 | 0.00 | 0.38 | 98 | 1012.1 |
| 20260510011759 | 44 | 0 | 0.0 | 0.0 | 0.00 | 0.00 | 0.38 | 98 | 1012.1 |
| 20260510011256 | 44 | 0 | 0.0 | 0.0 | 0.00 | 0.00 | 0.38 | 98 | 1012.2 |
| 20260510010757 | 44 | 0 | 0.0 | 0.0 | 0.00 | 0.00 | 0.38 | 98 | 1012.1 |
| 20260510010256 | 44 | 0 | 0.0 | 0.0 | 0.00 | 0.00 | 0.38 | 98 | 1012.1 |
| 20260510005756 | 44 | 0 | 0.0 | 0.0 | 0.00 | 0.00 | 0.38 | 98 | 1012.0 |
| 20260510005256 | 44 | 111 | 0.0 | 0.0 | 0.00 | 0.00 | 0.38 | 98 | 1012.0 |
| 20260510004757 | 44 | 0 | 0.0 | 0.0 | 0.00 | 0.00 | 0.38 | 98 | 1012.0 |
| 20260510004257 | 44 | 336 | 1.0 | 2.0 | 0.00 | 0.00 | 0.38 | 98 | 1011.9 |
| 20260510003756 | 44 | 0 | 0.0 | 0.0 | 0.00 | 0.00 | 0.38 | 98 | 1011.8 |
| 20260510003256 | 44 | 0 | 0.0 | 0.0 | 0.00 | 0.00 | 0.38 | 98 | 1011.7 |
| 20260510002756 | 44 | 0 | 0.0 | 0.0 | 0.00 | 0.00 | 0.38 | 98 | 1011.7 |
| 20260510002256 | 44 | 346 | 0.0 | 1.0 | 0.00 | 0.00 | 0.38 | 98 | 1011.7 |
| 20260510001756 | 44 | 0 | 0.0 | 0.0 | 0.00 | 0.00 | 0.38 | 98 | 1011.7 |
| 20260510001256 | 44 | 0 | 0.0 | 0.0 | 0.00 | 0.00 | 0.38 | 98 | 1011.7 |
| 20260510000758 | 45 | 0 | 0.0 | 0.0 | 0.00 | 0.00 | 0.38 | 98 | 1011.5 |
| 20260510000256 | 44 | 0 | 0.0 | 0.0 | 0.00 | 0.00 | 0.38 | 98 | 1011.4 |
| 20260509235756 | 45 | 0 | 0.0 | 0.0 | 0.00 | 0.00 | 0.38 | 97 | 1011.4 |
| 20260509235256 | 45 | 0 | 0.0 | 0.0 | 0.00 | 0.00 | 0.38 | 98 | 1011.3 |
| 20260509234756 | 45 | 0 | 0.0 | 0.0 | 0.00 | 0.00 | 0.38 | 97 | 1011.4 |
| 20260509234257 | 45 | 14 | 0.0 | 0.0 | 0.00 | 0.00 | 0.38 | 97 | 1011.4 |
| 20260509233757 | 45 | 0 | 0.0 | 0.0 | 0.00 | 0.00 | 0.38 | 97 | 1011.4 |
| 20260509233256 | 45 | 357 | 1.0 | 1.0 | 0.00 | 0.00 | 0.38 | 97 | 1011.3 |
| 20260509232757 | 45 | 0 | 0.0 | 0.0 | 0.00 | 0.00 | 0.38 | 97 | 1011.3 |
| 20260509232256 | 45 | 0 | 0.0 | 0.0 | 0.00 | 0.00 | 0.38 | 97 | 1011.4 |
| 20260509231756 | 45 | 0 | 0.0 | 0.0 | 0.00 | 0.00 | 0.38 | 97 | 1011.3 |
| 20260509231256 | 45 | 32 | 0.0 | 1.0 | 0.00 | 0.00 | 0.38 | 97 | 1011.3 |
| 20260509230756 | 45 | 0 | 0.0 | 0.0 | 0.00 | 0.00 | 0.38 | 97 | 1011.4 |
| 20260509230256 | 45 | 43 | 0.0 | 1.0 | 0.00 | 0.00 | 0.38 | 97 | 1011.3 |
| 20260509225757 | 45 | 0 | 0.0 | 0.0 | 0.00 | 0.00 | 0.40 | 97 | 1011.4 |
| 20260509225257 | 45 | 351 | 0.0 | 1.0 | 0.00 | 0.00 | 0.40 | 97 | 1011.4 |
| 20260509224756 | 45 | 0 | 0.0 | 1.0 | 0.00 | 0.00 | 0.40 | 96 | 1011.3 |
| 20260509224257 | 45 | 0 | 0.0 | 0.0 | 0.00 | 0.00 | 0.40 | 97 | 1011.2 |
| 20260509223756 | 45 | 2 | 1.0 | 2.0 | 0.00 | 0.00 | 0.40 | 96 | 1011.3 |
| 20260509223256 | 45 | 5 | 0.0 | 0.0 | 0.00 | 0.00 | 0.40 | 97 | 1011.3 |
| 20260509222756 | 45 | 328 | 1.0 | 1.0 | 0.01 | 0.00 | 0.40 | 97 | 1011.4 |
| 20260509222256 | 45 | 0 | 0.0 | 0.0 | 0.01 | 0.00 | 0.35 | 96 | 1011.4 |
| 20260509221756 | 45 | 0 | 0.0 | 0.0 | 0.01 | 0.00 | 0.35 | 97 | 1011.5 |
| 20260509221257 | 45 | 33 | 0.0 | 0.0 | 0.01 | 0.00 | 0.35 | 96 | 1011.6 |
| 20260509220756 | 45 | 0 | 0.0 | 0.0 | 0.01 | 0.00 | 0.35 | 97 | 1011.6 |
| 20260509220256 | 45 | 157 | 0.0 | 1.0 | 0.02 | 0.00 | 0.35 | 97 | 1011.6 |
| 20260509215800 | 45 | 261 | 2.0 | 2.0 | 0.02 | 0.00 | 0.35 | 97 | 1011.5 |
| 20260509215256 | 45 | 265 | 1.0 | 2.0 | 0.02 | 0.00 | 0.35 | 97 | 1011.5 |
| 20260509214756 | 45 | 310 | 0.0 | 1.0 | 0.02 | 0.00 | 0.35 | 96 | 1011.5 |
| 20260509214257 | 45 | 0 | 0.0 | 0.0 | 0.03 | 0.00 | 0.35 | 97 | 1011.6 |
| 20260509213757 | 46 | 231 | 2.0 | 2.0 | 0.03 | 0.00 | 0.35 | 97 | 1011.7 |
| 20260509213257 | 45 | 68 | 0.0 | 0.0 | 0.03 | 0.00 | 0.35 | 97 | 1011.7 |
| 20260509212756 | 45 | 297 | 0.0 | 0.0 | 0.03 | 0.00 | 0.35 | 96 | 1011.8 |
| 20260509212256 | 45 | 303 | 0.0 | 0.0 | 0.03 | 0.00 | 0.33 | 96 | 1011.8 |
| 20260509211757 | 45 | 0 | 0.0 | 0.0 | 0.03 | 0.00 | 0.32 | 96 | 1011.8 |
| 20260509211256 | 45 | 21 | 1.0 | 1.0 | 0.03 | 0.00 | 0.32 | 97 | 1011.7 |
| 20260509210756 | 45 | 279 | 1.0 | 2.0 | 0.04 | 0.00 | 0.32 | 97 | 1011.8 |
| 20260509210256 | 45 | 284 | 2.0 | 3.0 | 0.04 | 0.00 | 0.32 | 97 | 1011.8 |
| 20260509205756 | 45 | 224 | 1.0 | 2.0 | 0.05 | 0.00 | 0.32 | 96 | 1011.6 |
| 20260509205256 | 45 | 168 | 1.0 | 3.0 | 0.05 | 0.00 | 0.31 | 97 | 1011.7 |
| 20260509204756 | 45 | 279 | 2.0 | 2.0 | 0.05 | 0.00 | 0.31 | 96 | 1012.0 |
| 20260509204259 | 45 | 271 | 2.0 | 2.0 | 0.05 | 0.00 | 0.31 | 97 | 1011.9 |
| 20260509203757 | 45 | 284 | 1.0 | 1.0 | 0.05 | 0.00 | 0.31 | 96 | 1011.9 |
| 20260509203257 | 45 | 289 | 0.0 | 1.0 | 0.06 | 0.00 | 0.30 | 96 | 1011.9 |
| 20260509202800 | 45 | 233 | 0.0 | 0.0 | 0.06 | 0.00 | 0.30 | 95 | 1011.9 |
| 20260509202256 | 45 | 262 | 0.0 | 0.0 | 0.06 | 0.00 | 0.30 | 96 | 1011.9 |
| 20260509201756 | 45 | 82 | 0.0 | 1.0 | 0.06 | 0.00 | 0.29 | 96 | 1012.0 |
| 20260509201256 | 45 | 269 | 0.0 | 1.0 | 0.06 | 0.00 | 0.29 | 95 | 1012.1 |
| 20260509200756 | 45 | 320 | 0.0 | 1.0 | 0.06 | 0.00 | 0.28 | 95 | 1012.2 |
| 20260509200258 | 45 | 302 | 1.0 | 2.0 | 0.06 | 0.00 | 0.28 | 95 | 1012.1 |
| 20260509195756 | 45 | 160 | 2.0 | 2.0 | 0.06 | 0.00 | 0.27 | 95 | 1012.2 |
| 20260509195257 | 45 | 293 | 1.0 | 1.0 | 0.06 | 0.00 | 0.27 | 95 | 1012.1 |
| 20260509194756 | 45 | 292 | 2.0 | 4.0 | 0.06 | 0.00 | 0.27 | 95 | 1012.0 |
| 20260509194259 | 45 | 302 | 1.0 | 2.0 | 0.06 | 0.00 | 0.26 | 94 | 1012.1 |
| 20260509193756 | 45 | 240 | 2.0 | 2.0 | 0.06 | 0.00 | 0.26 | 95 | 1012.2 |
| 20260509193256 | 45 | 327 | 1.0 | 1.0 | 0.06 | 0.00 | 0.25 | 94 | 1012.2 |
| 20260509192756 | 45 | 18 | 1.0 | 2.0 | 0.05 | 0.00 | 0.25 | 94 | 1012.2 |
| 20260509192257 | 45 | 41 | 0.0 | 1.0 | 0.05 | 0.00 | 0.22 | 94 | 1012.2 |
| 20260509191756 | 45 | 304 | 0.0 | 1.0 | 0.05 | 0.00 | 0.22 | 94 | 1012.3 |
| 20260509191256 | 45 | 299 | 0.0 | 1.0 | 0.05 | 0.00 | 0.21 | 93 | 1012.2 |
| 20260509190757 | 45 | 0 | 0.0 | 0.0 | 0.04 | 0.00 | 0.21 | 94 | 1012.3 |
| 20260509190257 | 45 | 245 | 0.0 | 0.0 | 0.06 | 0.00 | 0.20 | 95 | 1012.3 |
| 20260509185756 | 45 | 315 | 0.0 | 1.0 | 0.06 | 0.00 | 0.19 | 95 | 1012.6 |
| 20260509185257 | 45 | 152 | 2.0 | 4.0 | 0.06 | 0.00 | 0.19 | 95 | 1012.4 |
| 20260509184758 | 44 | 215 | 1.0 | 2.0 | 0.06 | 0.00 | 0.19 | 95 | 1012.6 |
| 20260509184259 | 44 | 78 | 0.0 | 1.0 | 0.07 | 0.00 | 0.19 | 94 | 1012.7 |
| 20260509183756 | 45 | 321 | 2.0 | 3.0 | 0.07 | 0.00 | 0.18 | 94 | 1012.9 |
| 20260509183257 | 45 | 224 | 0.0 | 1.0 | 0.07 | 0.00 | 0.18 | 94 | 1012.9 |
| 20260509182756 | 45 | 339 | 1.0 | 2.0 | 0.07 | 0.00 | 0.18 | 95 | 1012.8 |